KE6AFE Weather Reports


time (UTC)temp
C
wind
direction
speed
KPH
gust
KPH
rain 1hr
cm
rain 24hr
cm
rain mn
cm
humidity
%
barometer
mb
20260505063150 14 3 0.0 0.0 0.00 0.00 0.00 62 1015.6
20260505062140 14 2 0.0 0.0 0.00 0.00 0.00 61 1015.6
20260505061130 14 2 0.0 0.0 0.00 0.00 0.00 61 1015.7
20260505060120 14 2 0.0 0.0 0.00 0.00 0.00 61 1015.7
20260505055110 14 2 0.0 0.0 0.00 0.00 0.00 60 1015.8
20260505054100 14 2 0.0 0.0 0.00 0.00 0.00 58 1015.9
20260505053050 14 3 0.0 0.0 0.00 0.00 0.00 58 1016.0
20260505052040 15 2 0.0 0.0 0.00 0.00 0.00 58 1016.1
20260505051030 15 2 0.0 0.0 0.00 0.00 0.00 57 1016.1
20260505040930 15 1 0.0 0.0 0.00 0.00 0.00 58 1015.6
20260505035920 15 1 0.0 0.0 0.00 0.00 0.00 57 1015.4
20260505034910 15 1 0.0 0.0 0.00 0.00 0.00 57 1015.4
20260505033900 16 1 0.0 0.0 0.00 0.00 0.00 56 1015.2
20260505032850 16 1 0.0 0.0 0.00 0.00 0.00 57 1015.2
20260505031840 16 1 0.0 0.0 0.00 0.00 0.00 57 1015.3
20260505030830 16 1 0.0 0.0 0.00 0.00 0.00 56 1015.4
20260505025820 16 1 0.0 0.0 0.00 0.00 0.00 55 1015.4
20260505024810 16 1 0.0 0.0 0.00 0.00 0.00 53 1015.4
20260505023800 16 1 0.0 0.0 0.00 0.00 0.00 53 1015.4
20260505022750 17 1 0.0 0.0 0.00 0.00 0.00 53 1015.3
20260505021740 17 1 0.0 0.0 0.00 0.00 0.00 52 1015.4
20260505020730 17 1 0.0 0.0 0.00 0.00 0.00 51 1015.3
20260505015720 17 1 0.0 0.0 0.00 0.00 0.00 51 1015.4
20260505014710 17 1 0.0 0.0 0.00 0.00 0.00 51 1015.4
20260505013700 18 1 0.0 0.0 0.00 0.00 0.00 49 1015.6
20260505012650 18 1 0.0 0.0 0.00 0.00 0.00 49 1015.7
20260505011640 18 1 0.0 0.0 0.00 0.00 0.00 48 1015.7
20260505010630 18 1 0.0 0.0 0.00 0.00 0.00 47 1015.9
20260505005620 18 1 0.0 0.0 0.00 0.00 0.00 45 1016.0
20260505004610 19 1 0.0 0.0 0.00 0.00 0.00 45 1016.1
20260505003600 20 1 0.0 0.0 0.00 0.00 0.00 44 1016.0
20260505002550 20 1 0.0 0.0 0.00 0.00 0.00 45 1016.1
20260505001540 20 1 0.0 0.0 0.00 0.00 0.00 44 1016.0
20260505000530 20 1 0.0 0.0 0.00 0.00 0.00 45 1015.9
20260504235520 21 1 0.0 0.0 0.00 0.00 0.00 45 1015.8
20260504234510 21 1 0.0 0.0 0.00 0.00 0.00 45 1015.9
20260504233500 21 2 0.0 0.0 0.00 0.00 0.00 42 1015.9
20260504232450 21 1 0.0 0.0 0.00 0.00 0.00 44 1016.0
20260504231440 21 1 0.0 0.0 0.00 0.00 0.00 46 1016.0
20260504230430 21 1 0.0 0.0 0.00 0.00 0.00 46 1016.0
20260504225420 21 1 0.0 0.0 0.00 0.00 0.00 47 1016.0
20260504224410 21 1 0.0 0.0 0.00 0.00 0.00 46 1016.1
20260504223400 21 2 0.0 0.0 0.00 0.00 0.00 47 1016.2
20260504222350 21 1 0.0 0.0 0.00 0.00 0.00 46 1016.1
20260504221340 21 1 0.0 0.0 0.00 0.00 0.00 46 1016.3
20260504220330 21 1 0.0 0.0 0.00 0.00 0.00 46 1016.3
20260504215320 21 1 0.0 0.0 0.00 0.00 0.00 47 1016.5
20260504214310 21 1 0.0 0.0 0.00 0.00 0.00 48 1016.4
20260504213300 21 1 0.0 0.0 0.00 0.00 0.00 48 1016.5
20260504212249 21 1 0.0 0.0 0.00 0.00 0.00 48 1016.7
20260504211240 21 1 0.0 0.0 0.00 0.00 0.00 49 1016.7
20260504210229 21 1 0.0 0.0 0.00 0.00 0.00 51 1016.8
20260504205220 21 1 0.0 0.0 0.00 0.00 0.00 52 1016.7
20260504204210 20 2 0.0 0.0 0.00 0.00 0.00 52 1016.7
20260504203158 20 1 0.0 0.0 0.00 0.00 0.00 53 1016.7
20260504202148 20 1 0.0 0.0 0.00 0.00 0.00 53 1016.7
20260504201138 20 1 0.0 0.0 0.00 0.00 0.00 54 1016.8
20260504200128 20 1 0.0 0.0 0.00 0.00 0.00 53 1016.8
20260504195118 20 1 0.0 0.0 0.00 0.00 0.00 53 1016.7
20260504194108 20 1 0.0 0.0 0.00 0.00 0.00 55 1016.7
20260504193058 20 1 0.0 0.0 0.00 0.00 0.00 55 1016.7
20260504192048 20 1 0.0 0.0 0.00 0.00 0.00 55 1016.6
20260504191038 19 1 0.0 0.0 0.00 0.00 0.00 57 1016.7
20260504190028 19 1 0.0 0.0 0.00 0.00 0.00 58 1016.6
20260504185018 18 1 0.0 0.0 0.00 0.00 0.00 58 1016.7
20260504184008 18 1 0.0 0.0 0.00 0.00 0.00 59 1016.6
20260504182958 18 1 0.0 0.0 0.00 0.00 0.00 60 1016.5
20260504181948 17 1 0.0 0.0 0.00 0.00 0.00 62 1016.5
20260504180938 17 1 0.0 0.0 0.00 0.00 0.00 63 1016.4
20260504175929 17 1 0.0 0.0 0.00 0.00 0.00 63 1016.4
20260504174918 16 1 0.0 0.0 0.00 0.00 0.00 64 1016.1
20260504173908 16 1 0.0 0.0 0.00 0.00 0.00 66 1016.0
20260504172858 16 1 0.0 0.0 0.00 0.00 0.00 66 1015.9
20260504171848 16 1 0.0 0.0 0.00 0.00 0.00 66 1015.9
20260504170838 16 1 0.0 0.0 0.00 0.00 0.00 67 1015.8
20260504150638 11 2 0.0 0.0 0.00 0.03 0.00 73 1015.6
20260504140538 8 2 0.0 0.0 0.00 0.03 0.00 79 1015.5
20260504130438 8 2 0.0 0.0 0.00 0.03 0.00 78 1015.0
20260504110238 8 2 0.0 0.0 0.00 0.03 0.00 78 1015.0
20260504100138 8 2 0.0 0.0 0.00 0.03 0.00 76 1014.9
20260504081958 10 2 0.0 0.0 0.00 0.03 0.00 74 1015.7
20260504080948 10 2 0.0 0.0 0.00 0.03 0.00 74 1015.7